Regional Weather Roundup
Issued by NWS Goodland, KS

Home | Current Version | Previous Version | Graphics & Text | Print | Product List | Glossary On
Versions: 1 2 3 4 5 6 7 8 9 10 11 12 13 14 15 16 17 18 19 20 21 22 23 24 25 26 27 28 29 30 31 32 33 34 35 36 37 38 39 40 41 42 43 44 45 46 47 48 49 50
477
ASUS43 KGLD 010008
RWRGLD

GOODLAND FORECAST AREA HOURLY WEATHER ROUNDUP
NATIONAL WEATHER SERVICE GOODLAND KS
600 PM MDT SAT APR 30 2016

...OFFICIAL OBSERVATIONS...

CITY           SKY/WX    TMP DP  RH WIND       PRES   REMARKS
GOODLAND KS    MIX PCPN  37  34  89 NW22      29.91R
HILL CITY KS   CLOUDY    45  37  73 NW13      29.87R
IMPERIAL NEB   CLOUDY    36  34  92 N17       29.94R
MCCOOK NEB     CLOUDY    39  35  86 N14       29.89R
AKRON CO       LGT SNOW  32  30  92 N25       30.01R VSB 3/4 WCI  19
BURLINGTON CO  CLOUDY    36  31  82 N20G31    29.94R
LIMON CO       LGT SNOW  31  30  96 N25       30.01R FOG     WCI  17
$$

...UNOFFICIAL OBSERVATIONS...

CITY           SKY/WX    TMP DP  RH WIND       PRES   REMARKS
COLBY KS       CLOUDY    39  37  93 NW16G22   29.90S
GOVE KS          N/A     42  32  68 MISG        N/A
LENORA KS        N/A     43  32  65 MISG        N/A
NORTON KS      CLOUDY    41  36  81 NW14      29.85R
SHARON SPRINGS   N/A     40  35  82 NW25        N/A
KIT CARSON CO    N/A     38  31  77 MISG        N/A
YUMA CO          N/A     34  32  93 N18G25      N/A
$$




USA.gov is the U.S. government's official web portal to all federal, state and local government web resources and services.